Alma, MI

8:17 AM EST on November 21, 2019 (GMT -0500)
Gratiot Community

Weather History for KAMN - June, 2019

Change the Weather History Date:

Thursday, June 13, 2019

  Actual Average Record
Temperature  
Mean Temperature 56 °F -  
Max Temperature 61 °F 78 °F 93 °F (1956)
Min Temperature 50 °F 54 °F 37 °F (2012)
Degree Days  
Heating Degree Days 10    
Growing Degree Days 6 (Base 50)    
Moisture  
Dew Point 52 °F    
Average Humidity 82    
Maximum Humidity 93    
Minimum Humidity 45    
Precipitation  
Precipitation 0.00 in - - ()
Sea Level Pressure  
Sea Level Pressure 29.75 in    
Wind  
Wind Speed 7 mph (NNW)    
Max Wind Speed 18 mph    
Max Gust Speed 26 mph    
Visibility 9 miles    
Events Rain    
Averages and records for this station are not official NWS values.
T = Trace of Precipitation, MM = Missing Value Source: NWS Daily Summary

Daily Weather History Graph

Daily Weather History Graph

Search for Another Location

Airport or City:

Astronomy

Jun. 13, 2019 Rise Set
Actual Time 5:57 AM EDT 9:19 PM EDT
Civil Twilight 5:22 AM EDT 9:55 PM EDT
Nautical Twilight 4:36 AM EDT 10:41 PM EDT
Astronomical Twilight 3:38 AM EDT 11:39 PM EDT
Moon 5:26 PM EDT (6/13) 3:50 AM EDT (6/13)
Length of Visible Light 16h 33m
Length of Day
15h 21m
Waxing Gibbous, 85% of the Moon is Illuminated
Jun 13
Waxing Gibbous
Jun 17
Full
Jun 25
Last Quarter
Jul 2
New
Jul 9
First Quarter

Hourly Weather History & Observations

Time (EDT) Temp. Dew Point Humidity Pressure Visibility Wind Dir Wind Speed Gust Speed Precip Events Conditions
12:15 AM 60.1 °F 56.1 °F 87% 29.79 in 10.0 mi NNE 5.8 mph - N/A   Mostly Cloudy
12:38 AM 59.9 °F 55.9 °F 87% 29.79 in 10.0 mi Calm Calm - N/A   Mostly Cloudy
12:56 AM 59.9 °F 56.3 °F 88% 29.75 in 10.0 mi NE 17.3 mph 25.3 mph N/A Rain Light Rain
1:15 AM 59.2 °F 55.6 °F 88% 29.75 in 10.0 mi NNE 5.8 mph - N/A Rain Light Rain
1:16 AM 59.2 °F 55.6 °F 88% 29.75 in 10.0 mi NNE 6.9 mph - N/A Rain Light Rain
1:35 AM 59.0 °F 55.4 °F 88% 29.76 in 10.0 mi North 5.8 mph - N/A   Drizzle
1:59 AM 59.0 °F 55.4 °F 88% 29.75 in 10.0 mi North 4.6 mph - N/A   Overcast
2:17 AM 59.0 °F 55.6 °F 88% 29.74 in 10.0 mi North 6.9 mph - N/A   Overcast
2:35 AM 58.6 °F 55.6 °F 90% 29.74 in 10.0 mi North 5.8 mph - N/A   Overcast
2:55 AM 58.6 °F 55.6 °F 90% 29.73 in 10.0 mi NE 6.9 mph - N/A Rain Light Rain
3:15 AM 58.5 °F 55.6 °F 90% 29.72 in 10.0 mi NE 4.6 mph - N/A   Overcast
3:38 AM 58.5 °F 55.8 °F 91% 29.71 in 10.0 mi NE 3.5 mph - N/A Rain Light Rain
3:56 AM 58.5 °F 55.9 °F 91% 29.71 in 10.0 mi NE 3.5 mph - N/A Rain Light Rain
4:15 AM 58.5 °F 56.1 °F 92% 29.71 in 10.0 mi Calm Calm - N/A Rain Light Rain
4:16 AM 58.5 °F 56.1 °F 92% 29.71 in 10.0 mi Calm Calm - N/A Rain Light Rain
4:35 AM 58.3 °F 55.9 °F 92% 29.70 in 10.0 mi ENE 3.5 mph - N/A Rain Light Rain
4:59 AM 58.1 °F 55.8 °F 92% 29.71 in 10.0 mi ESE 3.5 mph - N/A Rain Light Rain
5:17 AM 58.1 °F 55.6 °F 91% 29.70 in 10.0 mi ESE 4.6 mph - N/A Rain Light Rain
5:35 AM 58.1 °F 55.8 °F 92% 29.69 in 10.0 mi Calm Calm - N/A Rain Light Rain
5:36 AM 58.1 °F 55.8 °F 92% 29.69 in 10.0 mi Calm Calm - N/A Rain Light Rain
5:55 AM 58.1 °F 55.8 °F 92% 29.68 in 7.0 mi NNE 6.9 mph - N/A Rain Rain
5:56 AM 58.1 °F 55.8 °F 92% 29.68 in 7.0 mi NNE 6.9 mph - N/A Rain Rain
6:15 AM 57.6 °F 55.4 °F 92% 29.68 in 7.0 mi NE 6.9 mph - N/A Rain Rain
6:20 AM 57.6 °F 55.6 °F 93% 29.68 in 7.0 mi NNE 9.2 mph - N/A Rain Rain
6:38 AM 57.2 °F 55.0 °F 92% 29.68 in 7.0 mi NNE 8.1 mph - N/A Rain Light Rain
6:56 AM 57.2 °F 54.9 °F 92% 29.68 in 7.0 mi NNE 10.4 mph - N/A Rain Light Rain
7:15 AM 56.8 °F 54.7 °F 92% 29.67 in 7.0 mi NNE 11.5 mph 16.1 mph N/A Rain Light Rain
7:16 AM 56.8 °F 54.7 °F 92% 29.67 in 7.0 mi NNE 12.7 mph 17.3 mph N/A Rain Light Rain
7:35 AM 56.7 °F 54.5 °F 92% 29.66 in 10.0 mi NNE 11.5 mph 19.6 mph N/A Rain Light Rain
7:36 AM 56.7 °F 54.5 °F 92% 29.66 in 10.0 mi NNE 10.4 mph 19.6 mph N/A Rain Light Rain
7:59 AM 56.7 °F 54.5 °F 92% 29.66 in 10.0 mi NNE 10.4 mph 17.3 mph N/A Rain Rain
8:17 AM 56.7 °F 54.5 °F 92% 29.67 in 10.0 mi NNE 9.2 mph 16.1 mph N/A Rain Rain
8:35 AM 56.8 °F 54.5 °F 92% 29.68 in 10.0 mi NNE 8.1 mph - N/A Rain Light Rain
8:36 AM 56.8 °F 54.5 °F 92% 29.68 in 10.0 mi NNE 8.1 mph - N/A Rain Light Rain
8:55 AM 56.8 °F 54.5 °F 92% 29.68 in 10.0 mi NNE 8.1 mph - N/A Rain Rain
8:56 AM 56.8 °F 54.5 °F 92% 29.68 in 10.0 mi NNE 8.1 mph - N/A Rain Rain
9:19 AM 57.2 °F 54.5 °F 91% 29.69 in 10.0 mi North 8.1 mph - N/A Rain Light Rain
9:37 AM 57.2 °F 54.9 °F 92% 29.69 in 10.0 mi North 5.8 mph - N/A Rain Light Rain
9:55 AM 57.9 °F 55.2 °F 91% 29.69 in 10.0 mi North 4.6 mph - N/A Rain Light Rain
10:15 AM 58.1 °F 55.4 °F 91% 29.69 in 10.0 mi North 5.8 mph - N/A Rain Light Rain
10:35 AM 58.1 °F 55.4 °F 91% 29.69 in 10.0 mi North 5.8 mph - N/A Rain Light Rain
10:58 AM 58.5 °F 55.6 °F 90% 29.70 in 10.0 mi North 4.6 mph - N/A Rain Light Rain
11:16 AM 58.5 °F 55.6 °F 90% 29.70 in 10.0 mi North 5.8 mph - N/A Rain Light Rain
11:35 AM 58.6 °F 55.8 °F 90% 29.70 in 10.0 mi North 6.9 mph - N/A Rain Light Rain
11:36 AM 58.6 °F 55.8 °F 90% 29.70 in 10.0 mi North 6.9 mph - N/A Rain Light Rain
11:55 AM 59.0 °F 55.6 °F 88% 29.70 in 10.0 mi NNE 5.8 mph - N/A Rain Rain
12:19 PM 59.4 °F 55.8 °F 88% 29.70 in 10.0 mi North 3.5 mph - N/A Rain Light Rain
12:37 PM 59.0 °F 55.2 °F 87% 29.70 in 10.0 mi North 4.6 mph - N/A Rain Rain
12:55 PM 58.5 °F 55.2 °F 89% 29.71 in 5.0 mi NW 10.4 mph - N/A Rain Rain
1:15 PM 58.6 °F 55.6 °F 90% 29.71 in 10.0 mi NNW 6.9 mph - N/A Rain Light Rain
1:35 PM 57.7 °F 54.7 °F 90% 29.71 in 10.0 mi NNW 10.4 mph 17.3 mph N/A Rain Light Rain
1:58 PM 58.1 °F 54.9 °F 89% 29.72 in 7.0 mi NNW 11.5 mph 16.1 mph N/A Rain Rain
2:16 PM 57.6 °F 54.3 °F 89% 29.72 in 7.0 mi NNW 10.4 mph - N/A Rain Rain
2:35 PM 57.2 °F 54.0 °F 89% 29.73 in 7.0 mi NNW 11.5 mph 20.7 mph N/A Rain Light Rain
2:55 PM 58.1 °F 54.5 °F 88% 29.73 in 10.0 mi North 13.8 mph 19.6 mph N/A Rain Light Rain
2:56 PM 58.1 °F 54.7 °F 88% 29.73 in 10.0 mi NNW 11.5 mph 19.6 mph N/A Rain Light Rain
3:19 PM 58.3 °F 54.5 °F 87% 29.74 in 10.0 mi NNW 15.0 mph 24.2 mph N/A Rain Light Rain
3:37 PM 58.1 °F 53.6 °F 85% 29.75 in 10.0 mi NNW 17.3 mph 24.2 mph N/A Rain Light Rain
3:55 PM 57.2 °F 53.4 °F 87% 29.75 in 7.0 mi NNW 12.7 mph 24.2 mph N/A Rain Light Rain
3:56 PM 57.4 °F 53.6 °F 87% 29.75 in 7.0 mi NNW 15.0 mph 24.2 mph N/A Rain Light Rain
4:15 PM 57.7 °F 53.4 °F 85% 29.76 in 7.0 mi NNW 12.7 mph 25.3 mph N/A Rain Light Rain
4:16 PM 57.7 °F 53.4 °F 85% 29.77 in 7.0 mi NNW 12.7 mph 25.3 mph N/A Rain Light Rain
4:35 PM 58.1 °F 53.8 °F 86% 29.77 in 10.0 mi NNW 13.8 mph 21.9 mph N/A Rain Light Rain
4:40 PM 58.1 °F 53.6 °F 85% 29.78 in 10.0 mi NW 15.0 mph 21.9 mph N/A Rain Light Rain
4:58 PM 58.1 °F 53.1 °F 83% 29.78 in 10.0 mi NW 12.7 mph 19.6 mph N/A   Overcast
5:16 PM 58.6 °F 52.0 °F 79% 29.79 in 10.0 mi NNW 13.8 mph 21.9 mph N/A   Overcast
5:35 PM 58.6 °F 50.5 °F 74% 29.80 in 10.0 mi NW 13.8 mph 23.0 mph N/A   Overcast
5:55 PM 58.3 °F 49.3 °F 72% 29.81 in 10.0 mi NNW 18.4 mph 26.5 mph N/A   Overcast
6:19 PM 58.1 °F 49.5 °F 73% 29.81 in 10.0 mi NW 9.2 mph - N/A   Overcast
6:36 PM 58.5 °F 49.8 °F 73% 29.82 in 10.0 mi NW 5.8 mph - N/A   Overcast
6:55 PM 59.9 °F 50.2 °F 70% 29.82 in 10.0 mi NW 9.2 mph - N/A   Overcast
6:56 PM 60.1 °F 50.2 °F 70% 29.82 in 10.0 mi NW 9.2 mph - N/A   Overcast
7:15 PM 61.5 °F 47.5 °F 60% 29.83 in 10.0 mi NW 15.0 mph 18.4 mph N/A   Overcast
7:16 PM 61.5 °F 47.3 °F 60% 29.83 in 10.0 mi NW 12.7 mph 18.4 mph N/A   Overcast
7:35 PM 61.2 °F 45.5 °F 56% 29.83 in 10.0 mi WNW 12.7 mph 19.6 mph N/A   Mostly Cloudy
7:58 PM 59.9 °F 42.4 °F 52% 29.85 in 10.0 mi WNW 16.1 mph 20.7 mph N/A   Clear
8:16 PM 59.4 °F 40.1 °F 49% 29.86 in 10.0 mi NW 10.4 mph 19.6 mph N/A   Clear
8:35 PM 59.4 °F 40.6 °F 50% 29.86 in 10.0 mi NW 11.5 mph 18.4 mph N/A   Clear
8:55 PM 59.0 °F 37.8 °F 45% 29.86 in 10.0 mi NW 12.7 mph 18.4 mph N/A   Clear
8:56 PM 59.0 °F 37.6 °F 45% 29.86 in 10.0 mi WNW 12.7 mph 18.4 mph N/A   Clear
9:18 PM 57.2 °F 38.3 °F 49% 29.87 in 10.0 mi WNW 6.9 mph - N/A   Clear
9:37 PM 56.8 °F 37.4 °F 48% 29.88 in 10.0 mi WNW 6.9 mph - N/A   Clear
9:55 PM 56.1 °F 36.7 °F 48% 29.88 in 10.0 mi WNW 5.8 mph - N/A   Clear
10:15 PM 53.1 °F 38.1 °F 57% 29.90 in 10.0 mi West 5.8 mph - N/A   Clear
10:35 PM 52.0 °F 39.2 °F 62% 29.90 in 10.0 mi West 4.6 mph - N/A   Clear
10:58 PM 50.9 °F 39.4 °F 65% 29.90 in 10.0 mi West 8.1 mph - N/A   Clear
11:35 PM 50.4 °F 39.0 °F 65% 29.91 in 10.0 mi West 4.6 mph - N/A   Clear
11:36 PM 50.2 °F 39.0 °F 66% 29.91 in 10.0 mi West 4.6 mph - N/A   Clear
11:55 PM 50.7 °F 39.2 °F 65% 29.91 in 10.0 mi West 5.8 mph - N/A   Clear
11:56 PM 50.7 °F 39.2 °F 65% 29.91 in 10.0 mi West 5.8 mph - N/A   Clear